Find Starlink 31737

NORAD ID: 59537 Int'l Des: 2024-074 Owner: SPXS Country: US Constellation: starlink operational
LEOCIRCULAR

当前视图

正在加载3D地球...

About Starlink 31737

Starlink 31737 (NORAD 59537) is a starlink constellation satellite (v2 mini) launched Apr 18, 2024 by SPXS of US. It operates in LEO, CIRCULAR orbit with a mass of 730.00 kg.

即将过境

Passes for default location (London). Set your location on the main map for personalized predictions.

高度历史

Loading altitude history...

两行轨道根数

1 59537U 24074D 26264.18506728 -.00000227 00000-0 12687-5 0 9994
2 59537 43.0027 319.3990 0001315 274.9344 85.1357 15.27575390135916
Epoch: Sep 21, 2026 • Age: 9 hours

当前状态

高度 482.4 km
远地点 / 近地点 N/A
速度 7.63 km/s
星下点 7.97°N, 66.94°W
发射日期 Apr 18, 2024
运行时间 2.4 years
类型 internet

技术详情

分类 Payload
质量 730.00 kg
干质量 700.00 kg
长度 0.30 m
跨度 29.00 m
形状 ? Box + pan
制造商 SPXS
平台类型 Starlink V2M
阶段状态 In Orbit
所有者/国家 SPXS/US

Most Searched